Time,TemperatureF,DewpointF,PressureIn,WindDirection,WindDirectionDegrees,WindSpeedMPH,WindSpeedGustMPH,Humidity,HourlyPrecipIn,Conditions,Clouds,dailyrainin,SoftwareType,DateUTC
2013-12-31 00:02:00,-1.0,-6.0,-100.00,WNW,300,4.0,6.0,77,-99.99,,,-99.99,,2013-12-31 06:02:00,
2013-12-31 00:23:00,-1.0,-6.0,-100.00,WNW,300,4.0,6.0,77,-99.99,,,-99.99,,2013-12-31 06:23:00,
2013-12-31 00:33:00,-1.0,-6.0,-100.00,WNW,300,4.0,6.0,77,-99.99,,,-99.99,,2013-12-31 06:33:00,
2013-12-31 00:43:00,-1.0,-6.0,-100.00,WNW,300,4.0,6.0,77,-99.99,,,-99.99,,2013-12-31 06:43:00,
2013-12-31 00:52:00,-1.0,-6.0,-100.00,WNW,300,4.0,6.0,77,-99.99,,,-99.99,,2013-12-31 06:52:00,
2013-12-31 01:22:00,-1.0,-6.0,-100.00,WNW,295,5.0,9.0,77,-99.99,,,-99.99,,2013-12-31 07:22:00,
2013-12-31 01:42:00,-1.0,-6.0,-100.00,WNW,300,3.0,9.0,77,-99.99,,,-99.99,,2013-12-31 07:42:00,
2013-12-31 01:52:00,-1.0,-6.0,-100.00,WNW,300,3.0,9.0,77,-99.99,,,-99.99,,2013-12-31 07:52:00,
2013-12-31 02:02:00,-1.0,-6.0,-100.00,WNW,300,3.0,9.0,77,-99.99,,,-99.99,,2013-12-31 08:02:00,
2013-12-31 02:22:00,-1.0,-6.0,-100.00,WNW,295,3.0,7.0,77,-99.99,,,-99.99,,2013-12-31 08:22:00,
2013-12-31 02:32:00,-1.0,-6.0,-100.00,WNW,295,3.0,7.0,77,-99.99,,,-99.99,,2013-12-31 08:32:00,
2013-12-31 02:42:00,-1.0,-6.0,-100.00,WNW,295,3.0,7.0,77,-99.99,,,-99.99,,2013-12-31 08:42:00,
2013-12-31 02:52:00,-1.0,-6.0,-100.00,WNW,295,3.0,7.0,77,-99.99,,,-99.99,,2013-12-31 08:52:00,
2013-12-31 03:01:00,-1.0,-6.0,-100.00,West,270,5.0,9.0,76,-99.99,,,-99.99,,2013-12-31 09:01:00,
2013-12-31 03:02:00,-1.0,-6.0,-100.00,WNW,295,3.0,7.0,77,-99.99,,,-99.99,,2013-12-31 09:02:00,
2013-12-31 03:22:00,-1.0,-6.0,-100.00,West,270,5.0,9.0,76,-99.99,,,-99.99,,2013-12-31 09:22:00,
2013-12-31 03:33:00,-1.0,-6.0,-100.00,West,270,5.0,9.0,76,-99.99,,,-99.99,,2013-12-31 09:33:00,
2013-12-31 03:43:00,-1.0,-6.0,-100.00,West,270,5.0,9.0,76,-99.99,,,-99.99,,2013-12-31 09:43:00,
2013-12-31 03:53:00,-1.0,-6.0,-100.00,West,270,5.0,9.0,76,-99.99,,,-99.99,,2013-12-31 09:53:00,
2013-12-31 04:01:00,0.0,-6.0,-100.00,WNW,290,4.0,11.0,76,-99.99,,,-99.99,,2013-12-31 10:01:00,
2013-12-31 04:23:00,0.0,-6.0,-100.00,WNW,290,4.0,11.0,76,-99.99,,,-99.99,,2013-12-31 10:23:00,
2013-12-31 04:33:00,0.0,-6.0,-100.00,WNW,290,4.0,11.0,76,-99.99,,,-99.99,,2013-12-31 10:33:00,
2013-12-31 04:43:00,0.0,-6.0,-100.00,WNW,290,4.0,11.0,76,-99.99,,,-99.99,,2013-12-31 10:43:00,
2013-12-31 04:53:00,0.0,-6.0,-100.00,WNW,290,4.0,11.0,76,-99.99,,,-99.99,,2013-12-31 10:53:00,
2013-12-31 05:01:00,0.0,-6.0,-100.00,WNW,285,2.0,7.0,76,-99.99,,,-99.99,,2013-12-31 11:01:00,
2013-12-31 05:22:00,0.0,-6.0,-100.00,WNW,285,2.0,7.0,76,-99.99,,,-99.99,,2013-12-31 11:22:00,
2013-12-31 05:33:00,0.0,-6.0,-100.00,WNW,285,2.0,7.0,76,-99.99,,,-99.99,,2013-12-31 11:33:00,
2013-12-31 05:43:00,0.0,-6.0,-100.00,WNW,285,2.0,7.0,76,-99.99,,,-99.99,,2013-12-31 11:43:00,
2013-12-31 05:53:00,0.0,-6.0,-100.00,WNW,285,2.0,7.0,76,-99.99,,,-99.99,,2013-12-31 11:53:00,
2013-12-31 06:22:00,0.0,-6.0,-100.00,WNW,285,4.0,8.0,76,-99.99,,,-99.99,,2013-12-31 12:22:00,
2013-12-31 06:33:00,0.0,-6.0,-100.00,WNW,285,4.0,8.0,76,-99.99,,,-99.99,,2013-12-31 12:33:00,
2013-12-31 06:42:00,0.0,-6.0,-100.00,WNW,285,4.0,8.0,76,-99.99,,,-99.99,,2013-12-31 12:42:00,
2013-12-31 06:52:00,0.0,-6.0,-100.00,WNW,285,4.0,8.0,76,-99.99,,,-99.99,,2013-12-31 12:52:00,
2013-12-31 07:02:00,0.0,-6.0,-100.00,WNW,285,4.0,8.0,76,-99.99,,,-99.99,,2013-12-31 13:02:00,
2013-12-31 07:22:00,-1.0,-6.0,-100.00,West,275,2.0,4.0,77,-99.99,,,-99.99,,2013-12-31 13:22:00,
2013-12-31 07:32:00,-1.0,-6.0,-100.00,West,275,2.0,4.0,77,-99.99,,,-99.99,,2013-12-31 13:32:00,
2013-12-31 07:42:00,-1.0,-6.0,-100.00,West,275,2.0,4.0,77,-99.99,,,-99.99,,2013-12-31 13:42:00,
2013-12-31 07:52:00,-1.0,-6.0,-100.00,West,275,2.0,4.0,77,-99.99,,,-99.99,,2013-12-31 13:52:00,
2013-12-31 08:23:00,-3.0,-8.0,-100.00,NW,305,2.0,4.0,78,-99.99,,,-99.99,,2013-12-31 14:23:00,
2013-12-31 08:32:00,-3.0,-8.0,-100.00,NW,305,2.0,4.0,78,-99.99,,,-99.99,,2013-12-31 14:32:00,
2013-12-31 08:43:00,-3.0,-8.0,-100.00,NW,305,2.0,4.0,78,-99.99,,,-99.99,,2013-12-31 14:43:00,
2013-12-31 08:52:00,-3.0,-8.0,-100.00,NW,305,2.0,4.0,78,-99.99,,,-99.99,,2013-12-31 14:52:00,
2013-12-31 09:02:00,-3.0,-8.0,-100.00,NW,305,2.0,4.0,78,-99.99,,,-99.99,,2013-12-31 15:02:00,
2013-12-31 09:03:00,0.0,-5.0,-100.00,WNW,285,6.0,9.0,78,-99.99,,,-99.99,,2013-12-31 15:03:00,
2013-12-31 09:22:00,0.0,-5.0,-100.00,WNW,285,6.0,9.0,78,-99.99,,,-99.99,,2013-12-31 15:22:00,
2013-12-31 09:33:00,0.0,-5.0,-100.00,WNW,285,6.0,9.0,78,-99.99,,,-99.99,,2013-12-31 15:33:00,
2013-12-31 09:43:00,0.0,-5.0,-100.00,WNW,285,6.0,9.0,78,-99.99,,,-99.99,,2013-12-31 15:43:00,
2013-12-31 09:53:00,0.0,-5.0,-100.00,WNW,285,6.0,9.0,78,-99.99,,,-99.99,,2013-12-31 15:53:00,
2013-12-31 10:02:00,2.0,-5.0,-100.00,WNW,290,6.0,11.0,72,-99.99,,,-99.99,,2013-12-31 16:02:00,
2013-12-31 10:23:00,2.0,-5.0,-100.00,WNW,290,6.0,11.0,72,-99.99,,,-99.99,,2013-12-31 16:23:00,
2013-12-31 10:33:00,2.0,-5.0,-100.00,WNW,290,6.0,11.0,72,-99.99,,,-99.99,,2013-12-31 16:33:00,
2013-12-31 10:43:00,2.0,-5.0,-100.00,WNW,290,6.0,11.0,72,-99.99,,,-99.99,,2013-12-31 16:43:00,
2013-12-31 10:53:00,2.0,-5.0,-100.00,WNW,290,6.0,11.0,72,-99.99,,,-99.99,,2013-12-31 16:53:00,
2013-12-31 11:23:00,4.0,-5.0,-100.00,WNW,295,6.0,12.0,67,-99.99,,,-99.99,,2013-12-31 17:23:00,
2013-12-31 11:32:00,4.0,-5.0,-100.00,WNW,295,6.0,12.0,67,-99.99,,,-99.99,,2013-12-31 17:32:00,
2013-12-31 11:42:00,4.0,-5.0,-100.00,WNW,295,6.0,12.0,67,-99.99,,,-99.99,,2013-12-31 17:42:00,
2013-12-31 11:53:00,4.0,-5.0,-100.00,WNW,295,6.0,12.0,67,-99.99,,,-99.99,,2013-12-31 17:53:00,
2013-12-31 12:01:00,5.0,-5.0,-100.00,WSW,250,4.0,11.0,64,-99.99,,,-99.99,,2013-12-31 18:01:00,
2013-12-31 12:02:00,4.0,-5.0,-100.00,WNW,295,6.0,12.0,67,-99.99,,,-99.99,,2013-12-31 18:02:00,
2013-12-31 12:22:00,5.0,-5.0,-100.00,WSW,250,4.0,11.0,64,-99.99,,,-99.99,,2013-12-31 18:22:00,
2013-12-31 12:32:00,5.0,-5.0,-100.00,WSW,250,4.0,11.0,64,-99.99,,,-99.99,,2013-12-31 18:32:00,
2013-12-31 12:42:00,5.0,-5.0,-100.00,WSW,250,4.0,11.0,64,-99.99,,,-99.99,,2013-12-31 18:42:00,
2013-12-31 12:53:00,5.0,-5.0,-100.00,WSW,250,4.0,11.0,64,-99.99,,,-99.99,,2013-12-31 18:53:00,
2013-12-31 13:01:00,7.0,-4.0,-100.00,West,270,4.0,9.0,61,-99.99,,,-99.99,,2013-12-31 19:01:00,
2013-12-31 13:22:00,7.0,-4.0,-100.00,West,270,4.0,9.0,61,-99.99,,,-99.99,,2013-12-31 19:22:00,
2013-12-31 13:32:00,7.0,-4.0,-100.00,West,270,4.0,9.0,61,-99.99,,,-99.99,,2013-12-31 19:32:00,
2013-12-31 13:43:00,7.0,-4.0,-100.00,West,270,4.0,9.0,61,-99.99,,,-99.99,,2013-12-31 19:43:00,
2013-12-31 13:53:00,7.0,-4.0,-100.00,West,270,4.0,9.0,61,-99.99,,,-99.99,,2013-12-31 19:53:00,
2013-12-31 14:22:00,6.0,-6.0,-100.00,NW,315,5.0,11.0,58,-99.99,,,-99.99,,2013-12-31 20:22:00,
2013-12-31 14:32:00,6.0,-6.0,-100.00,NW,315,5.0,11.0,58,-99.99,,,-99.99,,2013-12-31 20:32:00,
2013-12-31 14:42:00,6.0,-6.0,-100.00,NW,315,5.0,11.0,58,-99.99,,,-99.99,,2013-12-31 20:42:00,
2013-12-31 14:53:00,6.0,-6.0,-100.00,NW,315,5.0,11.0,58,-99.99,,,-99.99,,2013-12-31 20:53:00,
2013-12-31 15:02:00,6.0,-6.0,-100.00,NW,315,5.0,11.0,58,-99.99,,,-99.99,,2013-12-31 21:02:00,
2013-12-31 15:03:00,6.0,-6.0,-100.00,WNW,290,4.0,12.0,58,-99.99,,,-99.99,,2013-12-31 21:03:00,
2013-12-31 15:22:00,6.0,-6.0,-100.00,WNW,290,4.0,12.0,58,-99.99,,,-99.99,,2013-12-31 21:22:00,
2013-12-31 15:33:00,6.0,-6.0,-100.00,WNW,290,4.0,12.0,58,-99.99,,,-99.99,,2013-12-31 21:33:00,
2013-12-31 15:43:00,6.0,-6.0,-100.00,WNW,290,4.0,12.0,58,-99.99,,,-99.99,,2013-12-31 21:43:00,
2013-12-31 15:53:00,6.0,-6.0,-100.00,WNW,290,4.0,12.0,58,-99.99,,,-99.99,,2013-12-31 21:53:00,
2013-12-31 16:23:00,6.0,-7.0,-100.00,WNW,300,4.0,7.0,57,-99.99,,,-99.99,,2013-12-31 22:23:00,
2013-12-31 16:34:00,6.0,-7.0,-100.00,WNW,300,4.0,7.0,57,-99.99,,,-99.99,,2013-12-31 22:34:00,
2013-12-31 16:43:00,6.0,-7.0,-100.00,WNW,300,4.0,7.0,57,-99.99,,,-99.99,,2013-12-31 22:43:00,
2013-12-31 16:53:00,6.0,-7.0,-100.00,WNW,300,4.0,7.0,57,-99.99,,,-99.99,,2013-12-31 22:53:00,
2013-12-31 17:01:00,5.0,-8.0,-100.00,WNW,290,4.0,7.0,56,-99.99,,,-99.99,,2013-12-31 23:01:00,
2013-12-31 17:02:00,6.0,-7.0,-100.00,WNW,300,4.0,7.0,57,-99.99,,,-99.99,,2013-12-31 23:02:00,
2013-12-31 17:22:00,5.0,-8.0,-100.00,WNW,290,4.0,7.0,56,-99.99,,,-99.99,,2013-12-31 23:22:00,
2013-12-31 17:33:00,5.0,-8.0,-100.00,WNW,290,4.0,7.0,56,-99.99,,,-99.99,,2013-12-31 23:33:00,
2013-12-31 17:43:00,5.0,-8.0,-100.00,WNW,290,4.0,7.0,56,-99.99,,,-99.99,,2013-12-31 23:43:00,
2013-12-31 17:53:00,5.0,-8.0,-100.00,WNW,290,4.0,7.0,56,-99.99,,,-99.99,,2013-12-31 23:53:00,
2013-12-31 18:22:00,4.0,-8.0,-100.00,WNW,295,4.0,7.0,56,-99.99,,,-99.99,,2014-01-01 00:22:00,
2013-12-31 18:32:00,4.0,-8.0,-100.00,WNW,295,4.0,7.0,56,-99.99,,,-99.99,,2014-01-01 00:32:00,
2013-12-31 18:42:00,4.0,-8.0,-100.00,WNW,295,4.0,7.0,56,-99.99,,,-99.99,,2014-01-01 00:42:00,
2013-12-31 18:52:00,4.0,-8.0,-100.00,WNW,295,4.0,7.0,56,-99.99,,,-99.99,,2014-01-01 00:52:00,
2013-12-31 19:02:00,4.0,-8.0,-100.00,WNW,295,4.0,7.0,56,-99.99,,,-99.99,,2014-01-01 01:02:00,
2013-12-31 19:22:00,3.0,-10.0,-100.00,NNW,330,3.0,7.0,54,-99.99,,,-99.99,,2014-01-01 01:22:00,
2013-12-31 19:32:00,3.0,-10.0,-100.00,NNW,330,3.0,7.0,54,-99.99,,,-99.99,,2014-01-01 01:32:00,
2013-12-31 19:42:00,3.0,-10.0,-100.00,NNW,330,3.0,7.0,54,-99.99,,,-99.99,,2014-01-01 01:42:00,
2013-12-31 19:52:00,3.0,-10.0,-100.00,NNW,330,3.0,7.0,54,-99.99,,,-99.99,,2014-01-01 01:52:00,
2013-12-31 20:02:00,3.0,-10.0,-100.00,NNW,330,3.0,7.0,54,-99.99,,,-99.99,,2014-01-01 02:02:00,
2013-12-31 20:22:00,-1.0,-12.0,-100.00,North,0,4.0,9.0,57,-99.99,,,-99.99,,2014-01-01 02:22:00,
2013-12-31 20:32:00,-1.0,-12.0,-100.00,North,0,4.0,9.0,57,-99.99,,,-99.99,,2014-01-01 02:32:00,
2013-12-31 20:42:00,-1.0,-12.0,-100.00,North,0,4.0,9.0,57,-99.99,,,-99.99,,2014-01-01 02:42:00,
2013-12-31 20:52:00,-1.0,-12.0,-100.00,North,0,4.0,9.0,57,-99.99,,,-99.99,,2014-01-01 02:52:00,
2013-12-31 21:02:00,-1.0,-12.0,-100.00,North,0,4.0,9.0,57,-99.99,,,-99.99,,2014-01-01 03:02:00,
2013-12-31 21:22:00,-3.0,-14.0,-100.00,North,0,4.0,7.0,61,-99.99,,,-99.99,,2014-01-01 03:22:00,
2013-12-31 21:33:00,-3.0,-14.0,-100.00,North,0,4.0,7.0,61,-99.99,,,-99.99,,2014-01-01 03:33:00,
2013-12-31 21:44:00,-3.0,-14.0,-100.00,North,0,4.0,7.0,61,-99.99,,,-99.99,,2014-01-01 03:44:00,
2013-12-31 21:53:00,-3.0,-14.0,-100.00,North,0,4.0,7.0,61,-99.99,,,-99.99,,2014-01-01 03:53:00,
2013-12-31 22:02:00,-6.0,-16.0,-100.00,NNW,345,3.0,5.0,62,-99.99,,,-99.99,,2014-01-01 04:02:00,
2013-12-31 22:23:00,-6.0,-16.0,-100.00,NNW,345,3.0,5.0,62,-99.99,,,-99.99,,2014-01-01 04:23:00,
2013-12-31 22:33:00,-6.0,-16.0,-100.00,NNW,345,3.0,5.0,62,-99.99,,,-99.99,,2014-01-01 04:33:00,
2013-12-31 22:43:00,-6.0,-16.0,-100.00,NNW,345,3.0,5.0,62,-99.99,,,-99.99,,2014-01-01 04:43:00,
2013-12-31 22:53:00,-6.0,-16.0,-100.00,NNW,345,3.0,5.0,62,-99.99,,,-99.99,,2014-01-01 04:53:00,
2013-12-31 23:01:00,-7.0,-16.0,-100.00,NNW,335,1.0,5.0,63,-99.99,,,-99.99,,2014-01-01 05:01:00,
2013-12-31 23:22:00,-7.0,-16.0,-100.00,NNW,335,1.0,5.0,63,-99.99,,,-99.99,,2014-01-01 05:22:00,
2013-12-31 23:33:00,-7.0,-16.0,-100.00,NNW,335,1.0,5.0,63,-99.99,,,-99.99,,2014-01-01 05:33:00,
2013-12-31 23:43:00,-7.0,-16.0,-100.00,NNW,335,1.0,5.0,63,-99.99,,,-99.99,,2014-01-01 05:43:00,
2013-12-31 23:53:00,-7.0,-16.0,-100.00,NNW,335,1.0,5.0,63,-99.99,,,-99.99,,2014-01-01 05:53:00,